Overview Statistics Trail Chart Weather Telemetry Raw packets
 

This is the latest recevied weather packets stored in our database for station/object KK7MLS-13. If no packets are shown the sender has not sent any weather packets the latest 10 day(s).

<< 78 79 80 81 82 83 84 >>
Time Temp. Humidity Pressure Rain* Wind** Luminosity Snow
1788108915 15° C 76% 1021.1 hPa 0 mm - 70 W/m² -
1788108611 15.56° C 76% 1021 hPa 0 mm - 55 W/m² -
1788108307 15.56° C 75% 1021.1 hPa 0 mm - 54 W/m² -
1788108003 15.56° C 73% 1021.1 hPa 0 mm - 53 W/m² -
1788107700 15.56° C 75% 1021.1 hPa 0 mm - 85 W/m² -
1788107398 16.11° C 74% 1021 hPa 0 mm - 80 W/m² -
1788107094 16.11° C 72% 1021.1 hPa 0 mm - 74 W/m² -
1788106794 16.67° C 71% 1021.1 hPa 0 mm - 97 W/m² -
1788106489 16.67° C 70% 1021.3 hPa 0 mm - 86 W/m² -
1788106184 17.22° C 68% 1021.3 hPa 0 mm - 164 W/m² -
1788105881 16.67° C 72% 1021.4 hPa 0 mm - 303 W/m² -
1788105575 16.67° C 71% 1021.3 hPa 0 mm - 279 W/m² -
1788105272 16.67° C 71% 1021.3 hPa 0 mm - 249 W/m² -
1788104972 15.56° C 75% 1021.2 hPa 0 mm - 235 W/m² -
1788104668 15.56° C 74% 1021.4 hPa 0 mm - 224 W/m² -
1788104364 15.56° C 75% 1021.3 hPa 0 mm - 209 W/m² -
1788104060 14.44° C 83% 1021.3 hPa 0 mm - 198 W/m² -
1788103759 13.89° C 81% 1021.3 hPa 0 mm - 184 W/m² -
1788103454 13.33° C 84% 1021.5 hPa 0 mm - 162 W/m² -
1788103148 12.22° C 89% 1021.5 hPa 0 mm - 114 W/m² -
1788102847 11.67° C 92% 1021.4 hPa 0 mm - 96 W/m² -
1788102542 11.67° C 92% 1021.5 hPa 0 mm - 38 W/m² -
1788102242 11.11° C 92% 1021.5 hPa 0 mm - 28 W/m² -
1788101936 11.11° C 92% 1021.5 hPa 0 mm - 27 W/m² -
1788101631 11.11° C 92% 1021.4 hPa 0 mm - 25 W/m² -

* Rain latest hour (hover to see other rain measurements)
** Current wind speed in m/s (hover to see current wind gust speed)